Regional Weather Roundup
Issued by NWS

Home | Current Version | Previous Version | Text Only | Print | Product List | Glossary On
Versions: 1 2 3 4 5 6 7 8 9 10 11 12 13 14 15 16 17 18 19 20 21 22 23 24 25 26 27 28 29 30 31 32 33 34 35 36 37 38 39 40 41 42 43 44 45 46 47 48 49 50
000
ASUS44 KJAN 090710
RWRMS

MISSISSIPPI HOURLY WEATHER ROUNDUP
NATIONAL WEATHER SERVICE JACKSON MS
100 AM CST TUE FEB 09 2016

NOTE: "FAIR: INDICATES FEW OR NO CLOUDS BELOW 12,000 FEET WITH NO
SIGNIFICANT WEATHER AND/OR OBSTRUCTIONS TO VISIBILITY.

MSZ001>002-007>008-010>013-018>021-025>028-034>036-090800-
NORTHWEST MISSISSIPPI

CITY           SKY/WX    TMP DP  RH WIND       PRES   REMARKS
CLEVELAND      FAIR      34  28  78 W6        30.04S WCI  29
GREENWOOD      PTCLDY    37  21  52 VRB3      30.03S
GREENVILLE     PTCLDY    35  21  56 W8        30.05F WCI  29
OLIVE BRANCH   CLOUDY    32  21  64 NW20      29.97S WCI  20
OXFORD         CLOUDY    36  16  44 NW14G21   29.98F WCI  27
TUNICA         CLOUDY    36  19  51 W13       30.00S WCI  27
$$

MSZ003>006-009-014>017-022>024-029>033-037>039-090800-
NORTHEAST MISSISSIPPI

CITY           SKY/WX    TMP DP  RH WIND       PRES   REMARKS
COLUMBUS AFB   CLOUDY    38  20  49 NW9       29.95F WCI  31
CORINTH        MIX PCPN  34  18  51 NW17      29.92S WCI  23
GOLDN TRIANGLE CLOUDY    37  18  44 NW7       29.96F WCI  32
STARKVILLE     CLOUDY    36  21  55 CALM      29.98F
TUPELO         CLOUDY    36  16  44 W8G17     29.95F WCI  30
$$

MSZ040-058-090800-
CENTRAL MISSISSIPPI

CITY           SKY/WX    TMP DP  RH WIND       PRES   REMARKS
JACKSON INTL   CLEAR     37  21  52 W5        30.03F WCI  33
JACKSON HAWKNS CLEAR     36  20  52 W7        30.04F WCI  30
MERIDIAN KEY   CLEAR     30  22  72 SW5       30.01F WCI  25
MERIDIAN NAS   PTCLDY    35  19  52 W8        30.00F WCI  29
VICKSBURG      CLEAR     35  23  61 W8        30.09R WCI  29
$$

MSZ059>079-090800-
SOUTH MISSISSIPPI

CITY           SKY/WX    TMP DP  RH WIND       PRES   REMARKS
BROOKHAVEN     FAIR      37  21  52 SW6       30.08S WCI  33
HATTIESBURG    CLEAR     32  24  72 SW5       30.07F WCI  27
MCCOMB         CLEAR     32  21  64 W3        30.09R
NATCHEZ        PTCLDY    41  14  33 W9        30.10S
PINE BELT      CLEAR     28  21  74 SW3       30.06S
$$

MSZ080>082-090800-
COASTAL MISSISSIPPI

CITY           SKY/WX    TMP DP  RH WIND       PRES   REMARKS
BILOXI         PTCLDY    42  22  46 NW2       30.08F
PASCAGOULA     PTCLDY    35  25  66 W3        30.08F
GULFPORT       PTCLDY    40  19  43 W5        30.09F
$$



USA.gov is the U.S. government's official web portal to all federal, state and local government web resources and services.